Back to catalog

ARIANE 2 DEB

LostGTO
NORAD 33533·DEBRIS·🇫🇷 France

Launched May 17, 1988 from Guiana Space Centre

Loading…

TLE

StaleSource: Space-Track

Epoch: Jul 21, 2025, 06:23 UTC

1 33533U 88040G   25202.26662943 -.00000110  00000-0  10019-2 0  9992
2 33533   7.4110 116.8722 7106905 202.5078 347.6728  2.34335190175865

Track ARIANE 2 DEB in real time with AllMySat

Download on the App Store